Regional Weather Roundup
Issued by NWS Cleveland, OH

Home | Current Version | Previous Version | Graphics & Text | Print | Product List | Glossary On
Versions: 1 2 3 4 5 6 7 8 9 10 11 12 13 14 15 16 17 18 19 20 21 22 23 24 25 26 27 28 29 30 31 32 33 34 35 36 37 38 39 40 41 42 43 44 45 46 47 48 49 50
000
ASUS41 KCLE 051802
RWRCLE
OHIO REGIONAL WEATHER ROUNDUP
NATIONAL WEATHER SERVICE CLEVELAND, OH
200 PM EDT THU MAY 05 2016

NOTE: "FAIR" INDICATES FEW OR NO CLOUDS BELOW 12,000 FEET WITH NO
SIGNIFICANT WEATHER AND/OR OBSTRUCTIONS TO VISIBILITY.

OHZ001>008-015>018-024>027-034-035-043-044-051900-
   NORTHWEST OHIO

CITY           SKY/WX    TMP DP  RH WIND       PRES   REMARKS
DEFIANCE       PTSUNNY   65  43  44 N16G22    29.86S
FINDLAY        PTSUNNY   60  45  57 NE17      29.83S
TOLEDO EXPRESS PTSUNNY   64  38  38 NE18G28   29.84F
TOLEDO EXEC    SUNNY     63  41  44 NE12G22   29.85F
LIMA           MOSUNNY   59  49  69 N13G22    29.84R
$$

OHZ009>014-019>023-028>033-038-089-051900-
   NORTHEAST OHIO

CITY           SKY/WX    TMP DP  RH WIND       PRES   REMARKS
CLE-HOPKINS    CLOUDY    53  47  79 N15G24    29.84R
CLE-LAKEFRONT  CLOUDY    51  47  86 N13       29.81S
CUY CO. ARPT   CLOUDY    54  48  82 NE12      29.81S
LORAIN-ELYRIA  CLOUDY    52  46  80 NE16      29.83S
ASHTABULA      CLOUDY    55  48  77 N14G25    29.79S
AKRON-CANTON   CLOUDY    57  46  66 N12       29.75S
WOOSTER        PTSUNNY   56  49  77 NW17      29.77S
MANSFIELD      CLOUDY    52  49  89 N18       29.80S
YOUNGSTOWN     CLOUDY    59  47  64 N16       29.73F
$$

OHZ042-051>053-060>062-070>072-077>081-051900-
  SOUTHWEST OHIO

CITY           SKY/WX    TMP DP  RH WIND       PRES   REMARKS
CINC-COVINGTON CLOUDY    50  42  74 N15       29.86S
CINC-LUNKEN    CLOUDY    51  42  71 N8        29.87S
HAMILTON       CLOUDY    50  44  80 NW7       29.88S
DAYTON         CLOUDY    53  45  74 N10       29.85S
WRIGHT-PAT AFB CLOUDY    51  47  87 NW6       29.84S
DAYTON GENERAL CLOUDY    49  42  77 NW10      29.85S
WILMINGTON     CLOUDY    49  43  80 NW12      29.83S
$$

OHZ036-037-039>041-045>050-054>059-063>069-073>076-082>088-051900-
  CENTRAL AND SOUTHEAST OHIO

CITY           SKY/WX    TMP DP  RH WIND       PRES   REMARKS
COLUMBUS       CLOUDY    52  46  80 N10       29.79F
OSU AIRPORT    CLOUDY    53  48  83 N7        29.80S
BOLTON FIELD   CLOUDY    52  46  82 NW8       29.81S
RICKENBACK AFB CLOUDY    52  46  79 NW12      29.80S
NEWARK         CLOUDY    56  46  69 NW8       29.77S
MARION         CLOUDY    54  48  80 N20G25    29.82S
LANCASTER      CLOUDY    55  47  74 NW10      29.79S
ZANESVILLE     CLOUDY    57  48  72 NW8       29.75F
NEW PHILLY     CLOUDY    59  46  62 N8        29.74S
$$



USA.gov is the U.S. government's official web portal to all federal, state and local government web resources and services.